Regional Weather Roundup
Issued by NWS Albany, NY

Home | Current Version | Previous Version | Text Only | Print | Product List | Glossary On
Versions: 1 2 3 4 5 6 7 8 9 10 11 12 13 14 15 16 17 18 19 20 21 22 23 24 25 26 27 28 29 30 31 32 33 34 35 36 37 38 39 40 41 42 43 44 45 46 47 48 49 50
000
ASUS41 KALY 020610
RWRALY

NEW YORK STATE HOURLY WEATHER ROUNDUP
NATIONAL WEATHER SERVICE ALBANY NY
200 AM EDT TUE JUN 02 2015

NOTE: "FAIR" INDICATES FEW OR NO CLOUDS BELOW 12,000 FEET WITH NO
SIGNIFICANT WEATHER AND/OR NO OBSTRUCTIONS TO VISIBILITY.

NYZ032-033-038>043-046>054-057>066-NYZ062>081-020700-
EAST


CITY           SKY/WX    TMP DP  RH WIND       PRES   REMARKS
ALBANY         LGT RAIN  50  47  89 SW3       30.17F
GLENS FALLS    CLOUDY    49  46  90 N6        30.18F
POUGHKEEPSIE   LGT RAIN  49  46  90 N3        30.15F
NEWBURGH       SHOWER    46  46 100 E12       30.16F FOG
MONTGOMERY     LGT RAIN  48  47  96 N7        30.15F
WHITE PLAINS   DRZL/FOG  48  46  93 E3        30.14S VSB 1
ISLIP          LGT RAIN  50  48  93 NE12      30.11S
NEW YORK CITY  LGT RAIN  50  46  87 NE12      30.12F
CENTRAL PARK   LGT RAIN  51  48  89 NE9       30.16F
$$

NYZ005>009-017-018-044>046-055-056-020700-
CENTRAL


CITY           SKY/WX    TMP DP  RH WIND       PRES   REMARKS
FULTON         CLOUDY    53  50  89 CALM      30.14S
SYRACUSE       DRIZZLE   52  51  97 E7        30.12F FOG
ROME           CLOUDY    50  49  96 E7        30.15S FOG
ELMIRA         CLOUDY    54  52  93 CALM      30.13S
BINGHAMTON     FOG       51  51 100 W5        30.11S VSB 1/4
MONTICELLO     CLOUDY    45  45 100 E7        30.14F
$$

NYZ026>034-041>043-020700-
NORTH


CITY           SKY/WX    TMP DP  RH WIND       PRES   REMARKS
WATERTOWN      CLOUDY    52  50  93 NE6       30.15S
FORT DRUM      NOT AVBL
MASSENA        CLOUDY    50  48  93 NE8       30.20F
SARANAC LAKE   CLOUDY    46  45  96 E5        30.15F FOG
PLATTSBURGH    CLOUDY    49  48  97 CALM      30.21F
$$

NYZ001>004-010>016-019>021-020700-
WEST


CITY           SKY/WX    TMP DP  RH WIND       PRES   REMARKS
NIAGARA FALLS  MOCLDY    48  46  93 N3        30.18R
BUFFALO        CLOUDY    51  49  92 N5        30.17S
DUNKIRK        CLOUDY    51  49  92 NE3       30.17S
JAMESTOWN      CLOUDY    48  45  87 N5        30.17R
WELLSVILLE     FOG       48  46  93 NE6       30.14F VSB 3/4
ROCHESTER      DRIZZLE   51  49  92 N7        30.17S FOG
PENN YAN       CLOUDY    51  50  96 NW3       30.15R
$$

             KEY
       WCI = WIND CHILL INDEX
       VSB = VISIBILITY
       HX  = HEAT INDEX
$$



USA.gov is the U.S. government's official web portal to all federal, state and local government web resources and services.